| time (UTC) | temp F | wind direction | speed knots | gust knots | rain 1hr in | rain 24hr in | rain mn in | humidity % | barometer mb |
| 20260510054519 | 53 | 68 | 0.0 | 1.7 | 0.00 | 0.06 | 0.00 | 80 | 1001.3 |
| 20260510053018 | 53 | 343 | 0.0 | 0.9 | 0.00 | 0.06 | 0.00 | 81 | 1001.3 |
| 20260510051516 | 54 | 349 | 0.0 | 2.6 | 0.00 | 0.06 | 0.00 | 81 | 1001.3 |
| 20260510050013 | 54 | 337 | 0.9 | 3.5 | 0.00 | 0.06 | 0.00 | 82 | 1001.3 |
| 20260510044512 | 55 | 355 | 7.0 | 10.4 | 0.00 | 0.06 | 0.00 | 83 | 1001.3 |
| 20260510043008 | 58 | 326 | 6.1 | 8.7 | 0.00 | 0.06 | 0.00 | 85 | 1001.3 |
| 20260510041501 | 59 | 293 | 1.7 | 3.5 | 0.00 | 0.06 | 0.00 | 81 | 1001.3 |
| 20260510040059 | 60 | 300 | 0.9 | 2.6 | 0.00 | 0.06 | 0.00 | 79 | 1001.3 |
| 20260510034557 | 60 | 115 | 0.0 | 2.6 | 0.00 | 0.06 | 0.06 | 79 | 1001.3 |
| 20260510033120 | 60 | 128 | 0.9 | 2.6 | 0.00 | 0.06 | 0.06 | 79 | 1001.3 |
| 20260510031619 | 60 | 111 | 0.9 | 5.2 | 0.00 | 0.06 | 0.06 | 78 | 1001.3 |
| 20260510030054 | 60 | 96 | 2.6 | 7.0 | 0.00 | 0.06 | 0.06 | 77 | 1001.3 |
| 20260510024555 | 60 | 243 | 0.9 | 5.2 | 0.00 | 0.06 | 0.06 | 77 | 1001.3 |
| 20260510023053 | 60 | 171 | 0.9 | 6.1 | 0.00 | 0.06 | 0.06 | 78 | 1001.3 |
| 20260510021552 | 59 | 231 | 0.0 | 5.2 | 0.00 | 0.06 | 0.06 | 81 | 1001.3 |
| 20260510020052 | 59 | 135 | 0.9 | 6.1 | 0.00 | 0.06 | 0.06 | 82 | 1001.3 |
| 20260510014605 | 59 | 213 | 1.7 | 8.7 | 0.00 | 0.06 | 0.06 | 82 | 1001.3 |
| 20260510013050 | 59 | 204 | 1.7 | 7.0 | 0.00 | 0.06 | 0.06 | 84 | 1001.3 |
| 20260510011557 | 58 | 266 | 2.6 | 7.8 | 0.00 | 0.06 | 0.06 | 86 | 1001.3 |
| 20260510010100 | 57 | 141 | 2.6 | 7.8 | 0.00 | 0.06 | 0.06 | 91 | 1001.3 |
| 20260510004555 | 57 | 252 | 0.9 | 7.0 | 0.00 | 0.11 | 0.06 | 97 | 1001.3 |
| 20260510003057 | 56 | 202 | 3.5 | 10.4 | 0.00 | 0.11 | 0.06 | 97 | 1001.3 |
| 20260510001547 | 56 | 203 | 2.6 | 7.8 | 0.00 | 0.11 | 0.06 | 97 | 1001.3 |
| 20260510000052 | 56 | 135 | 2.6 | 7.8 | 0.00 | 0.11 | 0.06 | 97 | 1001.3 |
| 20260509234646 | 55 | 195 | 4.3 | 9.6 | 0.03 | 0.11 | 0.06 | 98 | 1001.3 |
| 20260509233045 | 55 | 180 | 1.7 | 12.2 | 0.06 | 0.11 | 0.06 | 97 | 1001.3 |
| 20260509231545 | 55 | 117 | 1.7 | 4.3 | 0.06 | 0.11 | 0.06 | 97 | 1001.3 |
| 20260509230044 | 54 | 245 | 0.9 | 6.1 | 0.06 | 0.11 | 0.06 | 97 | 1001.3 |
| 20260509224542 | 53 | 295 | 8.7 | 13.0 | 0.03 | 0.08 | 0.03 | 96 | 1001.3 |
| 20260509223047 | 55 | 295 | 16.5 | 26.9 | 0.00 | 0.05 | 0.00 | 91 | 1001.3 |
| 20260509221540 | 70 | 135 | 3.5 | 12.2 | 0.00 | 0.05 | 0.00 | 55 | 1001.3 |
| 20260509220053 | 70 | 216 | 4.3 | 13.0 | 0.00 | 0.05 | 0.00 | 54 | 1001.3 |
| 20260509214541 | 70 | 223 | 5.2 | 13.9 | 0.00 | 0.05 | 0.00 | 54 | 1001.3 |
| 20260509213040 | 70 | 235 | 3.5 | 13.9 | 0.00 | 0.05 | 0.00 | 56 | 1001.3 |
| 20260509211542 | 70 | 122 | 1.7 | 9.6 | 0.00 | 0.05 | 0.00 | 56 | 1001.3 |
| 20260509210035 | 70 | 229 | 2.6 | 12.2 | 0.00 | 0.05 | 0.00 | 55 | 1001.3 |
| 20260509204542 | 70 | 244 | 3.5 | 11.3 | 0.00 | 0.05 | 0.00 | 56 | 1001.3 |
| 20260509203036 | 71 | 91 | 2.6 | 13.0 | 0.00 | 0.05 | 0.00 | 56 | 1001.3 |
| 20260509201532 | 71 | 245 | 3.5 | 11.3 | 0.00 | 0.05 | 0.00 | 58 | 1001.3 |
| 20260509200038 | 70 | 217 | 3.5 | 10.4 | 0.00 | 0.05 | 0.00 | 56 | 1001.3 |
| 20260509194539 | 71 | 229 | 6.1 | 13.0 | 0.00 | 0.05 | 0.00 | 56 | 1001.3 |
| 20260509193037 | 71 | 222 | 4.3 | 8.7 | 0.00 | 0.05 | 0.00 | 56 | 1001.3 |
| 20260509191527 | 69 | 221 | 4.3 | 11.3 | 0.00 | 0.05 | 0.00 | 58 | 1001.3 |
| 20260509190028 | 70 | 215 | 3.5 | 10.4 | 0.00 | 0.05 | 0.00 | 56 | 1001.3 |
| 20260509184532 | 69 | 92 | 2.6 | 8.7 | 0.00 | 0.05 | 0.00 | 58 | 1001.3 |
| 20260509183029 | 69 | 143 | 3.5 | 11.3 | 0.00 | 0.05 | 0.00 | 58 | 1001.3 |
| 20260509181522 | 69 | 235 | 3.5 | 10.4 | 0.00 | 0.05 | 0.00 | 60 | 1001.3 |
| 20260509180017 | 64 | 268 | 0.9 | 4.3 | 0.00 | 0.05 | 0.00 | 77 | 1001.3 |
| 20260509174513 | 62 | 229 | 0.9 | 3.5 | 0.00 | 0.05 | 0.00 | 79 | 1001.3 |
| 20260509173012 | 62 | 274 | 0.9 | 3.5 | 0.00 | 0.05 | 0.00 | 79 | 1001.3 |
| 20260509171513 | 60 | 284 | 0.9 | 2.6 | 0.00 | 0.05 | 0.00 | 83 | 1001.3 |
| 20260509170011 | 60 | 296 | 0.9 | 2.6 | 0.00 | 0.05 | 0.00 | 84 | 1001.3 |
| 20260509164510 | 59 | 292 | 0.9 | 2.6 | 0.00 | 0.05 | 0.00 | 85 | 1001.3 |
| 20260509163017 | 61 | 295 | 2.6 | 3.5 | 0.00 | 0.05 | 0.00 | 79 | 1001.3 |
| 20260509161507 | 60 | 195 | 0.9 | 5.2 | 0.00 | 0.05 | 0.00 | 85 | 1001.3 |
| 20260509160004 | 58 | 288 | 0.9 | 2.6 | 0.00 | 0.05 | 0.00 | 88 | 1001.3 |
| 20260509154503 | 58 | 295 | 0.9 | 1.7 | 0.00 | 0.05 | 0.00 | 88 | 1001.3 |
| 20260509153007 | 57 | 287 | 0.0 | 2.6 | 0.00 | 0.05 | 0.00 | 88 | 1001.3 |
| 20260509151503 | 57 | 290 | 0.0 | 1.7 | 0.00 | 0.05 | 0.00 | 89 | 1001.3 |
| 20260509150001 | 58 | 280 | 1.7 | 3.5 | 0.00 | 0.05 | 0.00 | 88 | 1001.3 |
| 20260509144504 | 58 | 273 | 0.9 | 4.3 | 0.00 | 0.05 | 0.00 | 87 | 1001.3 |
| 20260509143102 | 58 | 244 | 0.9 | 3.5 | 0.00 | 0.05 | 0.00 | 87 | 1001.3 |
| 20260509141559 | 59 | 276 | 0.9 | 6.1 | 0.00 | 0.05 | 0.00 | 86 | 1001.3 |
| 20260509140113 | 58 | 273 | 0.9 | 5.2 | 0.00 | 0.05 | 0.00 | 86 | 1001.3 |
| 20260509134556 | 58 | 237 | 0.0 | 5.2 | 0.00 | 0.05 | 0.00 | 86 | 1001.3 |
| 20260509133101 | 57 | 98 | 0.9 | 3.5 | 0.00 | 0.05 | 0.00 | 87 | 1001.3 |
| 20260509131558 | 57 | 206 | 1.7 | 5.2 | 0.00 | 0.05 | 0.00 | 88 | 1001.3 |
| 20260509130101 | 56 | 134 | 1.7 | 7.0 | 0.00 | 0.05 | 0.00 | 88 | 1001.3 |
| 20260509124557 | 56 | 243 | 0.9 | 5.2 | 0.00 | 0.05 | 0.00 | 89 | 1001.3 |
| 20260509123049 | 56 | 236 | 0.9 | 5.2 | 0.00 | 0.05 | 0.00 | 90 | 1001.3 |
| 20260509121559 | 55 | 141 | 0.9 | 4.3 | 0.00 | 0.05 | 0.00 | 90 | 1001.3 |
| 20260509120045 | 55 | 227 | 0.9 | 4.3 | 0.00 | 0.05 | 0.00 | 91 | 1001.3 |
| 20260509114545 | 54 | 120 | 0.0 | 2.6 | 0.00 | 0.05 | 0.00 | 92 | 1001.3 |
| 20260509113050 | 54 | 122 | 0.0 | 2.6 | 0.00 | 0.05 | 0.00 | 92 | 1001.3 |
| 20260509111542 | 54 | 125 | 0.0 | 1.7 | 0.00 | 0.05 | 0.00 | 92 | 1001.3 |
| 20260509110041 | 54 | 110 | 0.0 | 3.5 | 0.00 | 0.05 | 0.00 | 92 | 1001.3 |
| 20260509104541 | 54 | 114 | 0.0 | 3.5 | 0.00 | 0.05 | 0.00 | 92 | 1001.3 |
| 20260509103040 | 54 | 120 | 0.0 | 1.7 | 0.00 | 0.05 | 0.00 | 92 | 1001.3 |
| 20260509101543 | 54 | 111 | 0.0 | 2.6 | 0.00 | 0.05 | 0.00 | 92 | 1001.3 |
| 20260509100039 | 53 | 119 | 0.0 | 1.7 | 0.00 | 0.05 | 0.00 | 92 | 1001.3 |
| 20260509094538 | 54 | 119 | 0.0 | 1.7 | 0.00 | 0.05 | 0.00 | 91 | 1001.3 |
| 20260509093038 | 54 | 108 | 0.0 | 0.9 | 0.00 | 0.05 | 0.00 | 91 | 1001.3 |
| 20260509091537 | 54 | 96 | 0.0 | 1.7 | 0.00 | 0.05 | 0.00 | 91 | 1001.3 |
| 20260509090039 | 54 | 238 | 0.0 | 2.6 | 0.00 | 0.05 | 0.00 | 90 | 1001.3 |
| 20260509084541 | 54 | 120 | 0.9 | 4.3 | 0.00 | 0.05 | 0.00 | 90 | 1001.3 |
| 20260509083046 | 54 | 245 | 0.0 | 4.3 | 0.00 | 0.05 | 0.00 | 90 | 1001.3 |
| 20260509081535 | 54 | 158 | 0.0 | 4.3 | 0.00 | 0.05 | 0.00 | 90 | 1001.3 |
| 20260509080034 | 54 | 183 | 0.9 | 4.3 | 0.00 | 0.05 | 0.00 | 90 | 1001.3 |
| 20260509074534 | 54 | 252 | 0.0 | 2.6 | 0.00 | 0.05 | 0.00 | 90 | 1001.3 |
| 20260509073034 | 54 | 176 | 0.0 | 4.3 | 0.00 | 0.05 | 0.00 | 90 | 1001.3 |
| 20260509071532 | 54 | 84 | 0.9 | 3.5 | 0.00 | 0.05 | 0.00 | 90 | 1001.3 |
| 20260509070035 | 54 | 231 | 0.0 | 3.5 | 0.00 | 0.05 | 0.00 | 90 | 1001.3 |
| 20260509064530 | 54 | 158 | 0.0 | 4.3 | 0.00 | 0.05 | 0.00 | 89 | 1001.3 |
| 20260509063032 | 54 | 168 | 0.9 | 6.1 | 0.00 | 0.05 | 0.00 | 89 | 1001.3 |
| 20260509061533 | 54 | 87 | 1.7 | 5.2 | 0.00 | 0.05 | 0.00 | 89 | 1001.3 |
| 20260509060027 | 54 | 190 | 0.9 | 4.3 | 0.00 | 0.05 | 0.00 | 89 | 1001.3 |